Powrót do katalogu

SDS-1

AktywnyMilitariaSSO
NORAD 33497·PAYLOAD·🇯🇵 Japan

Wystrzelony Jan 23, 2009 z Tanegashima Space Center

Loading…

Następne Przeloty (najbliższe 24 godziny)

TLE

ŚwieżeSource: Space-Track

Epoka: Sep 14, 2026, 04:22 UTC

1 33497U 09002F   26257.18243882  .00000424  00000-0  71402-4 0  9993
2 33497  98.1792 157.3170 0002404  35.3337 324.8030 14.74608774946672

Śledź SDS-1 w czasie rzeczywistym z AllMySat

Download on the App Store